Regional Weather Roundup
Issued by NWS

Home | Current Version | Previous Version | Graphics & Text | Print | Product List | Glossary On
Versions: 1 2 3 4 5 6 7 8 9 10 11 12 13 14 15 16 17 18 19 20 21 22 23 24 25 26 27 28 29 30 31 32 33 34 35 36 37 38 39 40 41 42 43 44 45 46 47 48 49 50
000
ASUS43 KMPX 202310
RWRMN
WEATHER ROUNDUP FOR MINNESOTA
NATIONAL WEATHER SERVICE TWIN CITIES/CHANHASSEN MN
600 PM CDT WED AUG 20 2014


NOTE: "FAIR" INDICATES FEW OR NO CLOUDS BELOW 12,000 FEET WITH NO
SIGNIFICANT WEATHER AND/OR OBSTRUCTIONS TO VISIBILITY. N/A MEANS
CURRENT SKY AND/OR WEATHER CONDITIONS ARE NOT AVAILABLE.

MNZ060>063-068>070-210000-
   Twin Cities Metro

CITY           SKY/WX    TMP DP  RH WIND       PRES   REMARKS
TWIN CITIES    PTSUNNY   82  66  58 E9        29.84S
ST PAUL        PTSUNNY   80  65  59 SE8       29.85R
CRYSTAL        PTSUNNY   83  63  50 E7        29.83S
BLAINE         PTSUNNY   81  66  61 E8        29.84F
LAKEVILLE      PTSUNNY   77  70  78 E6        29.85S
EDEN PRAIRIE   MOSUNNY   81  68  64 E9        29.83R
SOUTH ST PAUL  PTSUNNY   81  65  57 NE5       29.84S
LAKE ELMO      FAIR      79  64  61 E5        29.87S
$$
MNZ001>005-007-008-013>017-022>024-027-028-210000-
   Northwest Minnesota

CITY           SKY/WX    TMP DP  RH WIND       PRES   REMARKS
BEMIDJI        MOSUNNY   77  64  63 SE8       29.86S
HALLOCK        MOSUNNY   82  64  54 SE8       29.79S
ROSEAU         PTSUNNY   81  64  57 S12       29.84R
WARROAD        PTSUNNY   79  68  69 E9        29.85R
THIEF RVR FALL MOSUNNY   77  66  69 SE7       29.82R
CROOKSTON      SUNNY     82  64  54 S10       29.80S
FOSSTON        MOSUNNY   82  64  54 SE7       29.84S
DETROIT LAKES  PTSUNNY   79  64  61 SE10      29.83F
MOORHEAD       PTSUNNY   82  72  69 S8        29.79S
PARK RAPIDS    PTSUNNY   79  62  56 SE10      29.84F
MAHNOMEN       FAIR      77  67  71 SE7       29.82S
$$
MNZ006-009>011-018-025>026-210000-
   North Central Minnesota

CITY           SKY/WX    TMP DP  RH WIND       PRES   REMARKS
BAUDETTE       MOSUNNY   76  61  59 SE7       29.86S
FLAG ISLAND    MOSUNNY   75  63  64 SE6       29.85R
INTL FALLS     SUNNY     75  58  55 SE6       29.88S
WASKISH        MOSUNNY   75  63  64 CALM      29.87S
BIG FORK       MOSUNNY   39 N/A N/A S8        29.90S
LONGVILLE      MOSUNNY   75  64  69 E3        29.87S
GRAND RAPIDS   CLOUDY    70  61  73 SE3       29.90S
CRANE LAKE     MOSUNNY   73  59  60 CALM      29.91S
ORR            MOSUNNY   72  57  60 CALM      29.87S
COOK           MOSUNNY   72  61  68 CALM      29.90S
WALKER         FAIR      75  65  70 E5        29.85F
$$
MNZ012-019>021-037-210000-
   Northeast Minnesota

CITY           SKY/WX    TMP DP  RH WIND       PRES   REMARKS
DULUTH         PTSUNNY   69  58  67 SE6       29.93R
ELY            PTSUNNY   72  57  60 CALM      29.91S
HIBBING        CLOUDY    72  61  68 SE3       29.91S
EVELETH        CLOUDY    72  61  68 S6        29.92S
DULUTH HARBOR  CLOUDY    66  63  88 E5        29.92S
TWO HARBORS    SUNNY     68  57  68 SE6       29.92R
SILVER BAY     SUNNY     66  63  88 SE5       29.92R
GRAND MARAIS     N/A     63  60  90 CALM      29.93S
G MARAIS ARPRT CLOUDY    61  55  82 CALM      29.97R
$$
MNZ029>031-032-039>041-046>048-054>057-064-210000-
   West Central Minnesota

CITY           SKY/WX    TMP DP  RH WIND       PRES   REMARKS
FERGUS FALLS   MOSUNNY   81  63  54 SE10      29.79S
WHEATON        PTSUNNY   79  66  65 SE13      29.78F
MORRIS         PTSUNNY   81  66  61 SE9       29.79S
ALEXANDRIA     MOSUNNY   79  66  64 SE10      29.84F
ELBOW LAKE     FAIR      79  67  66 SE10      29.80F
WADENA         PTSUNNY   77  64  65 E9        29.84S
GLENWOOD       MOSUNNY   79  66  65 SE8       29.84S
APPLETON       PTSUNNY   81  68  65 E9        29.78S
BENSON         PTSUNNY   81  68  65 S9        29.80S
ORTONVILLE     PTSUNNY   79  66  65 SE10      29.77F
MADISON        CLOUDY    81  70  69 SE7       29.78F
WILLMAR        FAIR      81  66  61 SE8       29.83R
$$
MNZ033>034-036-042>043-049>051-058-059-210000-
   Central Minnesota

CITY           SKY/WX    TMP DP  RH WIND       PRES   REMARKS
ST CLOUD       PTSUNNY   82  65  56 E8        29.84S
SAUK CENTRE    FAIR      80  65  61 E9        29.84S
PAYNESVILLE    PTSUNNY   78  65  64 NE10      29.83S HAZE
AITKIN         MOSUNNY   79  64  61 SE3       29.86F
PINE RIVER     MOSUNNY   75  64  69 E8        29.89F
BRAINERD       MOSUNNY   73  64  73 SE6       29.87S
STAPLES        PTSUNNY   79  64  61 SE7       29.85S
LONG PRAIRIE   FAIR      75  64  69 E6        29.85S
LITTLE FALLS   PTSUNNY   79  63  57 SE7       29.84F
LITCHFIELD     PTSUNNY   81  70  69 SE6       29.84S
BUFFALO        PTSUNNY   82  63  52 E6        29.84F
MAPLE LAKE     PTSUNNY   80  66  62 E7        29.85S
$$
MNZ037-044-045-052-053-210000-
   East Central Minnesota

CITY           SKY/WX    TMP DP  RH WIND       PRES   REMARKS
PRINCETON      PTSUNNY   79  66  65 E7        29.85F
MORA           PTSUNNY   73  61  64 E5        29.88F
CAMBRIDGE      CLOUDY    79  64  61 E3        29.84F
RUSH CITY      PTSUNNY   76  64  67 NE5       29.87S
MOOSE LAKE     CLOUDY    73  61  64 SE3       29.88F
HINCKLEY       CLOUDY    75  64  69 NE5       29.88F
CLOQUET        CLOUDY    70  61  73 E5        29.92S
MCGREGOR       PTSUNNY   73  63  68 E6        29.89F
$$
MNZ071>073-080-081-089-090-097-098-210000-
   Southwest Minnesota

CITY           SKY/WX    TMP DP  RH WIND       PRES   REMARKS
MONTEVIDEO     CLOUDY    79  70  73 S8        29.80S
GRANITE FALLS  CLOUDY    80  68  67 SE9       29.81S
CANBY          LGT RAIN  75  69  81 SE7       29.78F
MARSHALL       CLOUDY    81  66  61 S10       29.79S
REDWOOD FALLS  PTSUNNY   83  68  60 SE10      29.80S
OLIVIA         PTSUNNY   81  64  57 SE9       29.81S
PIPESTONE      CLOUDY    79  70  73 S7        29.80F
WINDOM         PTSUNNY   79  68  69 SE8       29.83S
WORTHINGTON    CLOUDY    75  18  11 S8        29.85R
JACKSON        CLOUDY    77  68  73 SE8       29.85S
TRACY          CLOUDY    81  69  67 SE9       29.82S
SLAYTON        CLOUDY    76  71  83 CALM      29.82F
$$
MNZ065>067-074>077-082>085-091>093-210000-
   South Central Minnesota

CITY           SKY/WX    TMP DP  RH WIND       PRES   REMARKS
MANKATO        MOSUNNY   82  64  54 S10       29.83F
NEW ULM        MOSUNNY   81  68  65 S9        29.82R
ST JAMES       MOSUNNY   82  68  61 SE7       29.84R
FAIRMONT       PTSUNNY   79  64  61 S10       29.84S
GLENCOE        PTSUNNY   83  65  55 E9        29.83S
FARIBAULT      PTSUNNY   84  63  48 E7        29.85F
OWATONNA       PTSUNNY   82  64  54 S8        29.86S
WASECA         PTSUNNY   79  61  53 S7        29.86S
ALBERT LEA     PTSUNNY   81  66  61 SE6       29.87R
$$
MNZ078>079-086>088-094>096-210000-
   Southeast Minnesota

CITY           SKY/WX    TMP DP  RH WIND       PRES   REMARKS
ROCHESTER      PTSUNNY   81  68  64 SE7       29.88S
RED WING       CLOUDY    82  64  54 E3        29.85R
STANTON        PTSUNNY   82  65  57 E5        29.83S
DODGE CENTER   PTSUNNY   81  70  69 SE7       29.87F
WINONA         PTSUNNY   79  68  69 E5        29.87R
AUSTIN         PTSUNNY   79  70  73 S7        29.87S
PRESTON        PTSUNNY   79  71  74 SW6       29.89S
$$
ABBREVIATIONS USED IN REMARKS
   TC - TEMPERATURES IN CELSIUS
  WCI - WIND CHILL INDEX
   HX - HEAT INDEX
  VSB - VISIBILITY
$$


USA.gov is the U.S. government's official web portal to all federal, state and local government web resources and services.